EWG1M EHRD-EDDH

Flight info

Callsign EWG1M
Flight time 0h 42m
Altitude 33000
Route ANDIK2A ANDIK M105 RIBSO RIBSO7A
Aircraft A320/M-SDE3FGHIRWY/LB1

Departure

Time 2026-05-06 19:03
Airport Rotterdam The Hague Airport (EHRD)

Arrival

Time 2026-05-06 19:46
Airport Hamburg Helmut Schmidt Airport (EDDH)
Time Latitude Longitude Altitude Speed Heading
2026-05-06 18:45 51.95091 4.43427 1 ft 0 kts 327°
2026-05-06 18:59 51.95108 4.43409 1 ft 6 kts 328°
2026-05-06 18:59 51.95143 4.43434 2 ft 6 kts 51°
2026-05-06 19:00 51.95174 4.43494 1 ft 7 kts 30°
2026-05-06 19:00 51.95207 4.43476 2 ft 4 kts 336°
2026-05-06 19:00 51.95234 4.43440 1 ft 6 kts 322°
2026-05-06 19:00 51.95239 4.43433 1 ft 1 kts 308°
2026-05-06 19:01 51.95223 4.43356 1 ft 9 kts 231°
2026-05-06 19:01 51.95191 4.43278 1 ft 8 kts 240°
2026-05-06 19:01 51.95162 4.43196 1 ft 10 kts 242°
2026-05-06 19:01 51.95129 4.43085 2 ft 12 kts 245°
2026-05-06 19:02 51.95118 4.42954 1 ft 12 kts 298°
2026-05-06 19:02 51.95173 4.42885 1 ft 9 kts 328°
2026-05-06 19:02 51.95216 4.42855 2 ft 5 kts
2026-05-06 19:02 51.95230 4.42881 3 ft 4 kts 53°
2026-05-06 19:03 51.95320 4.43102 2 ft 57 kts 57°
2026-05-06 19:03 51.95661 4.43949 1 ft 120 kts 57°
2026-05-06 19:03 51.96177 4.45231 175 ft 151 kts 57°
2026-05-06 19:03 51.96771 4.46777 702 ft 165 kts 57°
2026-05-06 19:04 51.97372 4.48335 1363 ft 169 kts 57°
2026-05-06 19:04 51.97963 4.49840 2168 ft 165 kts 56°
2026-05-06 19:04 51.98559 4.51409 2841 ft 167 kts 61°
2026-05-06 19:04 51.99115 4.53253 2973 ft 198 kts 63°
2026-05-06 19:05 51.99737 4.55445 3010 ft 229 kts 64°
2026-05-06 19:05 52.00704 4.57633 3010 ft 245 kts 37°
2026-05-06 19:05 52.02214 4.58923 3005 ft 247 kts 25°
2026-05-06 19:05 52.03788 4.60065 3007 ft 247 kts 25°
2026-05-06 19:06 52.05260 4.61474 3007 ft 247 kts 39°
2026-05-06 19:06 52.06491 4.63409 3281 ft 246 kts 46°
2026-05-06 19:06 52.07691 4.65433 4088 ft 251 kts 45°
2026-05-06 19:06 52.08915 4.67486 4967 ft 255 kts 45°
2026-05-06 19:07 52.10144 4.69548 5803 ft 259 kts 45°
2026-05-06 19:07 52.11404 4.71673 6618 ft 264 kts 46°
2026-05-06 19:07 52.12688 4.73846 7385 ft 268 kts 45°
2026-05-06 19:07 52.13994 4.76056 8167 ft 273 kts 45°
2026-05-06 19:08 52.15322 4.78304 8957 ft 278 kts 45°
2026-05-06 19:08 52.16675 4.80596 9736 ft 282 kts 45°
2026-05-06 19:08 52.18052 4.82925 10358 ft 292 kts 44°
2026-05-06 19:08 52.19501 4.85374 10738 ft 308 kts 44°
2026-05-06 19:09 52.21032 4.87959 11101 ft 325 kts 45°
2026-05-06 19:09 52.22640 4.90679 11481 ft 340 kts 44°
2026-05-06 19:09 52.24297 4.93494 12095 ft 346 kts 45°
2026-05-06 19:09 52.25966 4.96347 12783 ft 351 kts 44°
2026-05-06 19:10 52.27661 4.99253 13452 ft 355 kts 44°
2026-05-06 19:10 52.29378 5.02197 14070 ft 360 kts 44°
2026-05-06 19:10 52.31113 5.05157 14646 ft 364 kts 43°
2026-05-06 19:10 52.33033 5.07784 15214 ft 365 kts 32°
2026-05-06 19:11 52.35260 5.09788 15793 ft 367 kts 21°
2026-05-06 19:11 52.37719 5.11093 16368 ft 369 kts 12°
2026-05-06 19:11 52.40180 5.12147 16920 ft 373 kts 12°
2026-05-06 19:11 52.42702 5.13241 17485 ft 377 kts 13°
2026-05-06 19:12 52.45253 5.14359 18057 ft 381 kts 13°
2026-05-06 19:12 52.47827 5.15494 18570 ft 384 kts 13°
2026-05-06 19:12 52.50420 5.16637 19064 ft 388 kts 13°
2026-05-06 19:12 52.53042 5.17790 19560 ft 392 kts 13°
2026-05-06 19:13 52.55688 5.18955 20048 ft 395 kts 13°
2026-05-06 19:13 52.58356 5.20135 20555 ft 399 kts 13°
2026-05-06 19:13 52.61043 5.21325 21058 ft 402 kts 13°
2026-05-06 19:13 52.63758 5.22526 21540 ft 405 kts 13°
2026-05-06 19:14 52.66492 5.23735 22021 ft 409 kts 13°
2026-05-06 19:14 52.69161 5.25336 22782 ft 406 kts 24°
2026-05-06 19:14 52.71593 5.27764 23425 ft 409 kts 36°
2026-05-06 19:14 52.73683 5.30936 23840 ft 413 kts 48°
2026-05-06 19:15 52.75368 5.34795 24236 ft 417 kts 60°
2026-05-06 19:15 52.76566 5.39161 24633 ft 419 kts 71°
2026-05-06 19:15 52.77541 5.43719 24888 ft 421 kts 71°
2026-05-06 19:15 52.78522 5.48268 24949 ft 422 kts 70°
2026-05-06 19:16 52.79510 5.52833 25106 ft 422 kts 71°
2026-05-06 19:16 52.80499 5.57432 25361 ft 429 kts 71°
2026-05-06 19:16 52.81475 5.62072 25493 ft 437 kts 72°
2026-05-06 19:16 52.82399 5.66889 25751 ft 441 kts 73°
2026-05-06 19:17 52.83261 5.71779 26087 ft 443 kts 75°
2026-05-06 19:17 52.84083 5.76691 26434 ft 444 kts 75°
2026-05-06 19:17 52.84897 5.81639 26769 ft 446 kts 75°
2026-05-06 19:17 52.85722 5.86602 27100 ft 448 kts 75°
2026-05-06 19:18 52.86562 5.91572 27424 ft 450 kts 75°
2026-05-06 19:18 52.87418 5.96564 27736 ft 452 kts 75°
2026-05-06 19:18 52.88283 6.01568 28034 ft 454 kts 75°
2026-05-06 19:18 52.89155 6.06606 28330 ft 455 kts 75°
2026-05-06 19:19 52.90026 6.11659 28623 ft 457 kts 75°
2026-05-06 19:19 52.90898 6.16733 28893 ft 459 kts 75°
2026-05-06 19:19 52.91766 6.21830 29163 ft 461 kts 75°
2026-05-06 19:19 52.92632 6.26960 29432 ft 462 kts 75°
2026-05-06 19:20 52.93497 6.32100 29690 ft 464 kts 75°
2026-05-06 19:20 52.94363 6.37257 29941 ft 465 kts 75°
2026-05-06 19:20 52.95231 6.42437 30164 ft 467 kts 75°
2026-05-06 19:20 52.96099 6.47621 30363 ft 468 kts 75°
2026-05-06 19:21 52.96968 6.52836 30561 ft 469 kts 75°
2026-05-06 19:21 52.97826 6.57981 30762 ft 469 kts 75°
2026-05-06 19:21 52.98705 6.63269 31035 ft 468 kts 75°
2026-05-06 19:21 52.99559 6.68401 31306 ft 467 kts 75°
2026-05-06 19:22 53.00422 6.73606 31560 ft 467 kts 75°
2026-05-06 19:22 53.01272 6.78791 31804 ft 466 kts 75°
2026-05-06 19:22 53.02122 6.83990 32065 ft 466 kts 75°
2026-05-06 19:22 53.02974 6.89199 32316 ft 465 kts 75°
2026-05-06 19:23 53.03815 6.94358 32567 ft 465 kts 76°
2026-05-06 19:23 53.04664 6.99569 32805 ft 465 kts 76°
2026-05-06 19:23 53.05504 7.04747 32921 ft 461 kts 76°
2026-05-06 19:24 53.07154 7.14984 32928 ft 457 kts 76°
2026-05-06 19:24 53.08806 7.25296 32931 ft 464 kts 76°
2026-05-06 19:25 53.10459 7.35679 32771 ft 463 kts 76°
2026-05-06 19:25 53.11273 7.40819 31703 ft 468 kts 76°
2026-05-06 19:25 53.12103 7.46063 30478 ft 469 kts 77°
2026-05-06 19:25 53.12929 7.51297 29360 ft 463 kts 76°
2026-05-06 19:26 53.13740 7.56453 28093 ft 456 kts 76°
2026-05-06 19:26 53.14530 7.61512 27140 ft 446 kts 76°
2026-05-06 19:26 53.15301 7.66477 26601 ft 439 kts 76°
2026-05-06 19:26 53.16060 7.71385 26039 ft 435 kts 76°
2026-05-06 19:27 53.16811 7.76231 25460 ft 430 kts 76°
2026-05-06 19:27 53.17562 7.81069 24719 ft 431 kts 76°
2026-05-06 19:27 53.18309 7.85888 24003 ft 431 kts 76°
2026-05-06 19:27 53.19059 7.90749 23277 ft 431 kts 76°
2026-05-06 19:28 53.19801 7.95592 22438 ft 431 kts 76°
2026-05-06 19:28 53.20539 8.00437 21623 ft 431 kts 76°
2026-05-06 19:28 53.21278 8.05290 20844 ft 431 kts 76°
2026-05-06 19:28 53.22015 8.10138 20082 ft 430 kts 76°
2026-05-06 19:29 53.22748 8.14973 19338 ft 430 kts 76°
2026-05-06 19:29 53.23233 8.18173 18856 ft 429 kts 76°
2026-05-06 19:29 53.23961 8.22990 18130 ft 428 kts 76°
2026-05-06 19:29 53.24683 8.27788 17321 ft 426 kts 75°
2026-05-06 19:30 53.25400 8.32589 16521 ft 425 kts 75°
2026-05-06 19:30 53.26110 8.37358 15743 ft 423 kts 75°
2026-05-06 19:30 53.26819 8.42136 14998 ft 421 kts 75°
2026-05-06 19:30 53.27520 8.46871 14259 ft 420 kts 75°
2026-05-06 19:31 53.28217 8.51591 13515 ft 417 kts 75°
2026-05-06 19:31 53.28912 8.56298 12711 ft 415 kts 75°
2026-05-06 19:31 53.30283 8.65597 11218 ft 407 kts 75°
2026-05-06 19:32 53.30943 8.70102 10964 ft 391 kts 75°
2026-05-06 19:32 53.31562 8.74353 10891 ft 370 kts 75°
2026-05-06 19:32 53.32152 8.78425 10818 ft 351 kts 75°
2026-05-06 19:32 53.32718 8.82331 10569 ft 339 kts 75°
2026-05-06 19:33 53.33265 8.86104 10327 ft 328 kts 75°
2026-05-06 19:33 53.33794 8.89759 10087 ft 319 kts 75°
2026-05-06 19:33 53.34311 8.93348 9722 ft 317 kts 75°
2026-05-06 19:33 53.34833 8.96974 8915 ft 324 kts 75°
2026-05-06 19:34 53.35366 9.00667 8126 ft 329 kts 76°
2026-05-06 19:34 53.35902 9.04411 7347 ft 332 kts 76°
2026-05-06 19:34 53.36432 9.08141 6973 ft 323 kts 76°
2026-05-06 19:34 53.36937 9.11704 6851 ft 307 kts 76°
2026-05-06 19:35 53.37416 9.15097 6723 ft 292 kts 76°
2026-05-06 19:35 53.37871 9.18319 6605 ft 277 kts 76°
2026-05-06 19:35 53.38303 9.21389 6483 ft 264 kts 76°
2026-05-06 19:35 53.38713 9.24304 6360 ft 251 kts 75°
2026-05-06 19:36 53.39106 9.27084 6238 ft 238 kts 76°
2026-05-06 19:36 53.39484 9.29768 5852 ft 237 kts 75°
2026-05-06 19:36 53.39861 9.32449 5445 ft 236 kts 76°
2026-05-06 19:36 53.40232 9.35090 5037 ft 235 kts 76°
2026-05-06 19:37 53.40599 9.37711 4829 ft 226 kts 76°
2026-05-06 19:37 53.40952 9.40239 4712 ft 222 kts 76°
2026-05-06 19:37 53.41303 9.42753 4582 ft 221 kts 76°
2026-05-06 19:37 53.41651 9.45259 4449 ft 220 kts 76°
2026-05-06 19:38 53.41995 9.47757 4319 ft 220 kts 76°
2026-05-06 19:38 53.42338 9.50250 4189 ft 219 kts 76°
2026-05-06 19:38 53.42680 9.52744 4067 ft 219 kts 76°
2026-05-06 19:38 53.43002 9.55083 3947 ft 218 kts 76°
2026-05-06 19:39 53.43348 9.57569 3959 ft 219 kts 76°
2026-05-06 19:39 53.43864 9.59949 3969 ft 218 kts 60°
2026-05-06 19:39 53.44726 9.62042 3857 ft 218 kts 52°
2026-05-06 19:39 53.45688 9.63996 3732 ft 217 kts 50°
2026-05-06 19:40 53.46664 9.65935 3599 ft 217 kts 51°
2026-05-06 19:40 53.47631 9.67862 3479 ft 213 kts 51°
2026-05-06 19:40 53.48558 9.69714 3342 ft 201 kts 51°
2026-05-06 19:40 53.49430 9.71456 3211 ft 190 kts 51°
2026-05-06 19:41 53.50257 9.73110 3117 ft 178 kts 51°
2026-05-06 19:41 53.51020 9.74638 3032 ft 164 kts 51°
2026-05-06 19:41 53.51706 9.76012 2980 ft 162 kts 51°
2026-05-06 19:41 53.52377 9.77358 2949 ft 163 kts 51°
2026-05-06 19:42 53.53101 9.78811 2804 ft 162 kts 51°
2026-05-06 19:42 53.53823 9.80258 2612 ft 162 kts 51°
2026-05-06 19:42 53.54543 9.81703 2416 ft 162 kts 52°
2026-05-06 19:42 53.55262 9.83150 2188 ft 160 kts 51°
2026-05-06 19:43 53.55967 9.84565 1975 ft 159 kts 51°
2026-05-06 19:43 53.56671 9.85982 1759 ft 157 kts 51°
2026-05-06 19:43 53.57371 9.87389 1535 ft 157 kts 51°
2026-05-06 19:43 53.58072 9.88801 1318 ft 148 kts 51°
2026-05-06 19:44 53.58683 9.90032 1129 ft 135 kts 51°
2026-05-06 19:44 53.59266 9.91207 936 ft 134 kts 49°
2026-05-06 19:44 53.59813 9.92310 766 ft 135 kts 50°
2026-05-06 19:44 53.60413 9.93513 580 ft 131 kts 47°
2026-05-06 19:45 53.60981 9.94667 382 ft 127 kts 48°
2026-05-06 19:45 53.61543 9.95809 208 ft 127 kts 46°
2026-05-06 19:45 53.62117 9.96963 55 ft 128 kts 47°
2026-05-06 19:45 53.62601 9.97935 41 ft 80 kts 50°
2026-05-06 19:46 53.62884 9.98506 44 ft 54 kts 49°
2026-05-06 19:46 53.63114 9.98964 46 ft 49 kts 48°
2026-05-06 19:46 53.63283 9.99373 47 ft 34 kts 75°
2026-05-06 19:46 53.63282 9.99572 48 ft 0 kts 97°
2026-05-06 19:47 53.63279 9.99604 48 ft 4 kts 97°
2026-05-06 19:47 53.63275 9.99657 49 ft 3 kts 96°
2026-05-06 19:47 53.63277 9.99747 49 ft 11 kts 71°
2026-05-06 19:47 53.63344 9.99882 47 ft 16 kts 53°
2026-05-06 19:48 53.63413 10.00034 49 ft 17 kts 49°
2026-05-06 19:48 53.63381 10.00158 49 ft 13 kts 173°
2026-05-06 19:48 53.63294 10.00169 49 ft 12 kts 175°
2026-05-06 19:48 53.63261 10.00174 49 ft 0 kts 173°
2026-05-06 19:49 53.63253 10.00184 46 ft 6 kts 135°
2026-05-06 19:49 53.63242 10.00293 49 ft 11 kts 84°
2026-05-06 19:49 53.63245 10.00352 49 ft 0 kts 86°